Temp
-6 -6 -6 -6 -6 -6 -6 -6 -6 -6 -6 -6 -6 -7 -6 -6 -5 -5 -5 -6 -6 -5 -5 -6 -5 -5 -5 -5 -5 -5 -5 -5 -5 -5 -6 -6 -6 -6 -6 -7 -7 -7 -8
-7 -6 -6 -7 -6 -6 -6 -6 -7 -7 -6 -7 -7 -7 -6 -6 -6 -5 -6 -6 -5 -5 -6 -6 -5 -5 -5 -5 -5 -5 -5 -5 -5 -5 -6 -6 -6 -6 -6 -6 -7 -7 -7
-7 -6 -7 -6 -6 -7 -7 -7 -7 -7 -7 -7 -7 -7 -6 -6 -5 -6 -5 -5 -5 -6 -6 -6 -5 -5 -5 -5 -5 -6 -6 -5 -5 -5 -6 -6 -5 -6 -6 -7 -7 -7 -7
-6 -6 -7 -7 -7 -7 -7 -7 -7 -7 -7 -7 -7 -7 -6 -6 -6 -6 -5 -6 -6 -6 -6 -6 -5 -5 -5 -5 -5 -6 -5 -5 -5 -6 -6 -6 -5 -6 -6 -7 -7 -7 -7
-6 -7 -7 -7 -7 -7 -7 -7 -7 -7 -7 -7 -7 -7 -6 -6 -6 -6 -6 -6 -6 -5 -6 -6 -6 -5 -5 -6 -6 -5 -5 -6 -6 -6 -6 -5 -6 -6 -7 -7 -7 -7 -7
-6 -6 -7 -7 -7 -7 -7 -8 -8 -8 -8 -7 -7 -7 -6 -7 -7 -6 -6 -6 -6 -6 -6 -6 -6 -6 -6 -6 -5 -5 -5 -5 -5 -6 -6 -5 -6 -6 -6 -6 -7 -7 -7
-6 -6 -7 -7 -7 -7 -8 -8 -8 -8 -8 -8 -7 -7 -7 -7 -7 -7 -6 -6 -6 -6 -6 -6 -6 -6 -6 -6 -6 -6 -5 -5 -5 -6 -6 -5 -6 -5 -6 -6 -6 -6 -6
-6 -6 -7 -7 -7 -8 -8 -8 -8 -8 -8 -8 -8 -8 -9 -7 -7 -7 -6 -6 -6 -7 -6 -6 -6 -6 -6 -6 -6 -6 -6 -5 -5 -5 -6 -5 -6 -6 -5 -5 -5 -6 -6
-6 -6 -6 -7 -7 -7 -8 -8 -8 -8 -8 -8 -8 -8 -8 -9 -8 -7 -7 -7 -7 -9 -6 -5 -6 -6 -6 -6 -6 -6 -6 -5 -5 -6 -6 -6 -6 -6 -6 -5 -5 -5 -6
-6 -6 -6 -7 -7 -7 -8 -8 -8 -7 -8 -8 -8 -8 -8 -8 -9 -8 -8 -8 -8 -6 -6 -6 -6 -6 -6 -6 -6 -6 -6 -5 -5 -6 -6 -6 -6 -6 -6 -6 -5 -5 -5
-6 -6 -6 -6 -7 -7 -7 -7 -8 -8 -8 -8 -7 -8 -8 -8 -8 -8 -8 -7 -7 -6 -7 -7 -6 -6 -6 -6 -6 -6 -6 -6 -6 -6 -6 -6 -6 -6 -6 -6 -6 -6 -5
-6 -6 -6 -6 -7 -7 -7 -7 -7 -7 -7 -7 -7 -7 -7 -7 -7 -7 -7 -7 -6 -6 -6 -6 -6 -6 -6 -6 -6 -6 -6 -6 -6 -6 -6 -6 -6 -6 -6 -6 -6 -6 -6
-6 -6 -6 -6 -6 -7 -7 -7 -7 -7 -7 -7 -8 -7 -7 -7 -7 -7 -7 -7 -7 -6 -6 -6 -6 -6 -6 -6 -6 -7 -6 -6 -6 -6 -6 -6 -6 -6 -6 -6 -6 -6 -5
-6 -6 -7 -7 -7 -7 -7 -6 -7 -7 -7 -7 -7 -7 -7 -7 -6 -6 -7 -6 -7 -7 -6 -6 -6 -7 -6 -6 -5 -6 -6 -6 -6 -6 -6 -6 -6 -6 -6 -6 -6 -6 -6
-6 -6 -6 -7 -7 -6 -6 -6 -6 -6 -7 -6 -6 -7 -7 -7 -7 -7 -6 -6 -6 -6 -6 -6 -6 -6 -6 -6 -5 -6 -6 -6 -6 -6 -6 -6 -6 -6 -6 -6 -6 -6 -6
-6 -6 -6 -6 -7 -6 -6 -6 -6 -6 -6 -6 -6 -7 -7 -7 -6 -6 -6 -6 -6 -6 -6 -6 -6 -5 -5 -5 -5 -5 -5 -6 -6 -6 -6 -6 -6 -6 -6 -6 -6 -6 -6
-6 -7 -6 -6 -6 -7 -7 -7 -6 -6 -7 -7 -7 -7 -7 -6 -6 -6 -6 -6 -6 -6 -6 -6 -6 -5 -5 -5 -5 -5 -5 -6 -6 -5 -5 -6 -6 -6 -6 -6 -6 -6 -6
-6 -6 -6 -6 -6 -6 -7 -7 -7 -7 -6 -7 -7 -7 -7 -6 -6 -6 -6 -6 -6 -6 -6 -6 -6 -5 -5 -5 -5 -5 -6 -6 -5 -5 -6 -6 -6 -6 -6 -6 -6 -6 -6
-7 -6 -6 -6 -6 -7 -6 -6 -7 -7 -6 -6 -6 -6 -6 -6 -6 -6 -6 -6 -6 -6 -6 -6 -5 -6 -5 -5 -6 -6 -5 -6 -6 -6 -6 -6 -6 -6 -6 -6 -7 -6 -6
-7 -7 -7 -7 -6 -7 -7 -6 -6 -6 -6 -7 -6 -6 -7 -7 -6 -6 -6 -6 -6 -6 -5 -6 -6 -6 -6 -6 -6 -6 -6 -6 -6 -7 -6 -6 -6 -6 -6 -7 -7 -6 -6
-6 -7 -7 -8 -7 -7 -7 -7 -6 -6 -6 -6 -7 -7 -7 -7 -7 -6 -6 -6 -6 -6 -6 -6 -6 -6 -6 -6 -6 -6 -6 -6 -6 -6 -7 -6 -6 -6 -6 -6 -6 -6 -6
-6 -7 -7 -7 -7 -7 -7 -7 -7 -7 -6 -6 -6 -6 -6 -6 -7 -6 -6 -6 -6 -6 -7 -7 -6 -6 -6 -6 -6 -6 -6 -6 -6 -6 -6 -6 -6 -6 -6 -6 -6 -6 -6
-7 -7 -7 -7 -7 -7 -7 -7 -7 -7 -7 -6 -6 -6 -6 -6 -6 -6 -6 -6 -6 -6 -6 -6 -6 -6 -6 -6 -6 -6 -6 -6 -6 -6 -6 -5 -5 -6 -6 -6 -6 -6 -6
-6 -7 -7 -7 -7 -7 -7 -7 -7 -8 -8 -7 -7 -7 -7 -7 -6 -6 -6 -6 -6 -6 -6 -6 -6 -6 -5 -6 -6 -6 -6 -6 -6 -6 -6 -6 -5 -5 -7 -6 -6 -6 -6
-6 -6 -7 -7 -7 -7 -7 -7 -7 -7 -8 -8 -7 -7 -7 -7 -7 -6 -6 -6 -6 -6 -6 -6 -6 -6 -6 -5 -5 -6 -6 -6 -6 -6 -6 -6 -6 -6 -6 -6 -6 -6 -6
-6 -6 -6 -7 -7 -7 -7 -7 -7 -8 -8 -8 -8 -8 -7 -8 -7 -7 -7 -7 -7 -6 -6 -6 -6 -6 -6 -6 -5 -6 -6 -6 -6 -5 -5 -6 -6 -6 -6 -6 -6 -6 -6
Height
5868 5867 5867 5866 5866 5866 5867 5867 5867 5867 5867 5870 5869 5872 5871 5870 5871 5873 5874 5876 5878 5881 5882 5885 5888 5889 5889 5891 5891 5891 5892 5893 5894 5895 5894 5894 5892 5891 5889 5886 5884 5884 5882
5868 5869 5867 5867 5867 5868 5868 5867 5867 5868 5870 5870 5871 5872 5870 5868 5868 5869 5875 5877 5880 5882 5883 5886 5889 5889 5891 5892 5892 5894 5895 5897 5897 5897 5896 5894 5894 5893 5890 5888 5886 5884 5884
5869 5868 5867 5868 5869 5869 5867 5868 5869 5870 5872 5872 5872 5871 5871 5869 5840 5870 5869 5878 5880 5883 5886 5888 5890 5890 5892 5893 5896 5896 5897 5898 5899 5899 5898 5897 5897 5895 5893 5890 5888 5887 5886
5871 5870 5870 5870 5870 5869 5869 5870 5872 5872 5874 5873 5871 5872 5873 5871 5869 5871 5875 5877 5880 5883 5887 5889 5891 5891 5893 5895 5897 5898 5900 5899 5899 5901 5901 5900 5898 5897 5895 5892 5891 5889 5890
5871 5871 5871 5870 5871 5871 5872 5874 5875 5875 5875 5874 5874 5873 5873 5872 5871 5873 5875 5877 5879 5883 5888 5890 5891 5893 5894 5897 5898 5900 5900 5901 5902 5902 5902 5901 5900 5898 5897 5895 5894 5892 5894
5873 5872 5871 5872 5873 5874 5875 5876 5877 5877 5876 5875 5874 5874 5873 5873 5872 5873 5875 5875 5878 5884 5887 5891 5894 5896 5897 5899 5901 5902 5903 5903 5903 5903 5902 5902 5902 5900 5899 5898 5896 5895 5895
5875 5873 5872 5874 5875 5876 5877 5878 5878 5878 5877 5877 5876 5874 5870 5870 5872 5874 5876 5878 5881 5884 5888 5893 5896 5898 5900 5902 5903 5904 5905 5905 5905 5904 5902 5904 5903 5904 5902 5901 5898 5896 5897
5876 5875 5874 5875 5876 5877 5878 5878 5878 5879 5879 5878 5879 5875 5873 5873 5875 5877 5877 5880 5884 5889 5892 5896 5898 5901 5902 5904 5906 5907 5907 5908 5907 5905 5904 5905 5905 5905 5904 5903 5901 5899 5899
5877 5877 5877 5877 5877 5878 5878 5879 5880 5881 5881 5881 5881 5879 5879 5879 5878 5880 5881 5883 5884 5889 5896 5899 5901 5903 5904 5906 5908 5909 5908 5909 5909 5906 5906 5907 5907 5907 5906 5905 5904 5903 5901
5880 5880 5879 5879 5878 5879 5879 5879 5881 5882 5883 5883 5884 5884 5884 5884 5885 5887 5886 5888 5893 5898 5900 5903 5904 5906 5907 5908 5910 5911 5911 5910 5910 5909 5909 5909 5909 5909 5908 5907 5907 5906 5904
5882 5882 5881 5881 5881 5881 5881 5881 5882 5884 5885 5887 5887 5887 5888 5890 5890 5892 5895 5897 5898 5901 5902 5905 5907 5909 5910 5911 5911 5911 5911 5911 5910 5909 5910 5911 5911 5911 5911 5909 5909 5907 5907
5884 5884 5884 5883 5884 5884 5884 5884 5885 5886 5888 5889 5890 5891 5892 5893 5894 5894 5897 5899 5901 5903 5905 5907 5908 5910 5911 5911 5912 5911 5911 5911 5911 5912 5911 5912 5912 5912 5912 5911 5911 5910 5908
5885 5886 5886 5886 5886 5887 5887 5888 5888 5888 5890 5892 5893 5894 5896 5896 5898 5899 5900 5902 5904 5907 5909 5910 5911 5912 5912 5912 5912 5912 5913 5913 5914 5914 5913 5914 5914 5913 5912 5912 5913 5913 5910
5887 5887 5888 5888 5889 5890 5889 5890 5891 5891 5893 5894 5895 5897 5898 5900 5900 5903 5904 5906 5908 5909 5910 5912 5913 5913 5912 5912 5914 5914 5914 5915 5915 5915 5914 5914 5914 5914 5913 5912 5913 5914 5912
5889 5889 5889 5890 5891 5893 5893 5892 5893 5895 5896 5897 5899 5900 5902 5903 5905 5906 5907 5908 5908 5909 5911 5913 5914 5915 5915 5914 5914 5915 5915 5915 5916 5915 5915 5915 5915 5914 5914 5912 5913 5913 5913
5891 5891 5892 5892 5894 5895 5896 5896 5896 5897 5899 5900 5902 5902 5903 5904 5906 5907 5909 5909 5911 5911 5912 5913 5914 5915 5916 5916 5915 5916 5917 5916 5915 5915 5915 5914 5914 5914 5914 5914 5912 5913 5913
5891 5892 5894 5894 5895 5897 5897 5898 5899 5899 5901 5902 5904 5904 5904 5905 5907 5908 5910 5911 5913 5913 5913 5913 5914 5915 5915 5915 5916 5916 5916 5914 5913 5914 5914 5914 5914 5913 5912 5913 5912 5913 5913
5892 5893 5894 5896 5897 5898 5899 5899 5899 5901 5902 5902 5904 5905 5906 5907 5908 5909 5911 5912 5912 5912 5913 5913 5913 5914 5914 5916 5916 5915 5915 5914 5913 5913 5914 5913 5913 5913 5913 5912 5912 5911 5910
5891 5892 5894 5895 5897 5898 5899 5900 5901 5901 5902 5903 5904 5905 5906 5908 5909 5909 5910 5911 5912 5912 5912 5912 5912 5913 5913 5915 5915 5913 5913 5912 5911 5911 5913 5912 5911 5911 5911 5911 5910 5908 5907
5891 5891 5893 5895 5896 5897 5899 5899 5900 5900 5901 5902 5904 5905 5906 5907 5908 5909 5908 5910 5911 5911 5911 5911 5911 5911 5911 5913 5913 5912 5912 5912 5911 5911 5911 5911 5910 5909 5909 5907 5906 5904 5904
5891 5891 5892 5893 5895 5896 5898 5898 5900 5900 5901 5901 5903 5904 5906 5907 5907 5908 5908 5908 5908 5909 5910 5909 5910 5910 5910 5910 5912 5911 5911 5910 5909 5909 5909 5908 5907 5907 5906 5906 5904 5902 5900
5892 5891 5891 5892 5892 5894 5896 5897 5899 5900 5901 5902 5902 5903 5903 5904 5905 5905 5902 5906 5907 5907 5907 5908 5909 5909 5910 5910 5909 5910 5910 5909 5908 5907 5907 5906 5905 5904 5904 5903 5902 5899 5896
5894 5892 5891 5891 5890 5892 5894 5895 5898 5900 5901 5902 5902 5903 5904 5903 5904 5904 5904 5905 5905 5906 5906 5907 5907 5908 5907 5907 5907 5907 5907 5906 5905 5905 5903 5902 5901 5900 5901 5901 5901 5898 5896
5897 5894 5892 5891 5890 5892 5893 5894 5896 5897 5900 5901 5902 5902 5903 5903 5903 5903 5903 5904 5904 5904 5904 5904 5904 5905 5905 5904 5904 5903 5903 5904 5903 5902 5899 5896 5894 5895 5896 5898 5898 5898 5897
5897 5896 5894 5892 5890 5892 5893 5893 5894 5895 5896 5898 5899 5900 5901 5901 5902 5902 5901 5902 5903 5903 5903 5902 5901 5901 5901 5900 5900 5900 5901 5901 5902 5900 5897 5894 5892 5893 5893 5895 5896 5897 5897
5896 5896 5895 5893 5891 5892 5892 5892 5893 5894 5895 5896 5896 5897 5898 5897 5898 5898 5899 5899 5899 5898 5899 5899 5899 5899 5898 5896 5895 5895 5897 5898 5899 5899 5897 5895 5893 5892 5893 5894 5894 5894 5895
Wind_Speed
6 6 9 11 12 12 11 11 10 8 7 5 5 3 5 7 7 6 17 15 17 15 19 20 18 17 15 12 11 8 6 6 7 8 7 7 10 10 9 9 8 6 2
7 8 10 11 12 12 13 12 11 9 6 6 3 3 8 6 10 8 16 15 16 19 22 19 18 18 15 11 9 7 5 8 9 8 7 10 10 8 8 8 9 10 6
6 9 10 10 12 13 13 13 11 8 7 5 4 8 7 7 19 9 17 16 12 25 19 20 16 16 13 10 9 6 8 10 10 9 8 9 10 9 10 9 12 14 11
6 8 10 12 13 14 13 13 11 9 8 7 8 9 7 5 6 6 8 17 24 27 20 17 14 14 13 11 9 8 8 10 10 9 10 10 12 13 13 13 14 17 14
7 9 11 13 13 12 12 13 12 10 10 10 9 9 7 12 8 12 12 11 24 27 20 20 17 15 13 11 9 8 9 10 9 10 10 14 14 14 13 14 15 19 16
9 11 12 12 12 11 10 12 13 12 13 11 10 11 4 16 13 13 17 17 35 29 24 24 18 15 13 11 10 8 9 8 8 10 15 13 15 13 13 14 18 19 15
11 13 13 11 11 11 11 12 14 13 13 13 14 15 13 12 24 23 21 19 25 30 29 23 18 15 13 11 8 8 7 7 9 13 18 14 15 14 12 14 18 18 15
12 14 14 13 13 12 11 12 14 14 13 14 18 24 26 20 18 16 18 21 30 25 24 20 17 14 11 9 8 8 7 9 11 16 18 15 14 13 13 12 13 15 12
14 14 15 14 15 14 13 13 14 15 13 15 16 14 21 24 22 22 23 26 27 22 17 17 16 12 11 9 7 7 12 12 12 16 15 15 14 12 13 13 11 12 13
15 15 15 16 16 15 15 15 14 15 14 12 12 14 18 18 22 26 23 25 25 13 15 14 13 11 11 10 9 9 10 10 11 12 12 12 12 11 11 12 10 10 11
14 17 16 16 16 16 16 16 16 15 16 14 12 12 14 16 15 20 19 25 16 15 15 11 12 11 11 8 9 11 9 9 10 9 8 8 8 9 10 10 9 9 9
14 15 17 17 16 17 16 17 18 18 16 15 13 12 13 16 17 14 15 15 15 16 18 12 11 12 10 8 8 8 7 8 8 6 8 10 7 7 7 7 7 8 8
13 14 15 15 16 17 17 17 16 17 17 15 15 14 17 17 18 16 15 14 14 14 12 11 9 7 8 11 10 8 8 9 8 7 8 9 9 7 8 8 5 6 7
13 12 11 11 12 14 16 17 16 16 17 18 16 15 18 17 16 16 16 16 15 14 13 12 11 9 8 10 8 7 8 8 7 8 10 8 9 8 7 8 7 6 5
11 9 12 9 9 11 12 14 15 15 14 15 17 16 14 14 13 13 13 13 12 13 11 9 9 7 7 6 5 4 4 4 4 7 7 6 6 6 6 6 7 7 7
8 8 8 11 8 8 8 11 12 12 12 12 12 14 13 12 11 11 10 10 10 9 9 7 6 4 4 4 3 2 3 3 3 3 3 4 5 6 7 5 5 7 8
6 5 7 7 7 6 7 4 6 8 9 9 9 9 10 10 10 9 8 7 5 6 5 5 3 2 2 1 2 3 5 4 3 4 5 5 4 6 7 8 7 9 9
3 3 4 6 5 5 5 7 7 6 8 7 6 7 6 7 7 8 7 6 4 2 1 0 2 1 2 4 2 1 4 6 6 6 7 7 7 7 10 9 11 11 13
4 3 3 3 5 4 1 6 6 6 7 5 5 6 6 3 2 4 5 3 1 0 1 1 2 2 3 2 3 5 5 5 6 7 7 7 9 10 8 8 11 13 13
4 2 1 4 6 6 4 3 3 2 2 5 4 5 3 3 2 3 2 3 1 3 3 1 2 3 5 6 6 7 6 7 6 8 7 7 9 11 11 14 14 14 10
7 5 6 2 6 6 8 6 5 3 1 2 1 2 8 8 4 3 5 6 4 4 5 2 4 2 8 6 6 6 6 6 4 6 8 11 13 13 12 12 14 13 9
7 6 5 6 9 9 8 9 7 4 4 3 3 5 3 2 2 2 4 8 6 7 6 5 6 7 8 9 9 8 9 8 8 10 12 14 15 14 13 12 10 9 9
4 5 5 8 6 10 10 9 8 7 6 6 6 4 3 4 5 6 12 6 8 5 8 10 11 10 10 13 14 14 13 10 13 15 18 18 17 17 13 11 6 8 8
7 6 5 6 7 7 7 8 7 6 6 7 8 7 5 6 4 4 7 9 9 7 7 9 10 12 16 17 17 18 16 14 13 12 17 17 15 11 10 8 5 1 3
9 8 5 5 5 3 7 9 11 8 7 7 8 8 7 7 7 7 8 9 10 11 13 14 12 12 16 18 18 17 14 11 7 7 12 11 7 5 6 2 0 2 1
10 9 9 5 4 5 6 10 11 10 9 9 10 8 8 9 9 9 11 11 11 12 12 12 7 6 8 11 13 13 10 8 5 5 7 10 12 10 4 2 1 2 1
Wind_Direction
94 93 97 101 98 93 87 82 78 79 77 74 81 126 114 92 150 168 152 152 162 164 154 133 136 137 119 114 114 101 88 85 65 52 45 36 36 21 10 11 6 23 10
79 95 95 101 101 94 86 78 75 74 72 60 62 95 103 146 159 135 155 156 162 162 143 140 149 137 126 133 117 101 95 75 68 60 51 46 30 23 18 21 31 43 61
71 83 89 101 102 91 82 82 82 83 81 71 68 68 92 138 129 126 156 173 165 150 139 134 150 131 142 124 112 117 96 79 71 64 61 51 39 42 45 48 56 59 69
85 97 101 104 101 91 87 88 87 90 81 66 52 59 77 135 151 140 151 179 158 158 145 156 153 151 139 130 127 115 99 82 75 70 62 55 49 47 49 51 61 67 70
89 94 97 95 94 94 93 99 90 85 83 74 63 42 75 136 156 162 164 184 178 159 154 157 163 150 138 136 132 112 94 81 81 76 67 52 53 50 53 56 63 73 73
93 92 91 95 100 104 103 98 92 83 76 69 54 45 118 162 158 152 142 176 162 163 154 161 155 149 144 133 115 105 91 89 92 86 71 50 55 52 59 65 70 72 72
88 90 91 103 107 106 102 103 96 86 74 67 48 59 108 130 165 151 157 165 170 167 157 146 142 143 142 136 126 97 94 100 97 85 74 60 53 54 59 66 77 77 76
90 89 94 101 104 104 104 102 105 95 84 71 48 53 59 123 132 142 161 174 165 138 137 137 142 146 134 128 120 109 96 80 83 77 73 65 54 53 59 57 72 81 75
90 92 94 99 101 102 103 101 101 99 96 83 67 64 63 67 125 129 130 119 129 120 131 136 138 136 130 122 124 110 91 85 77 78 73 70 63 47 59 58 50 76 80
93 95 94 96 97 99 97 96 101 108 107 106 81 76 70 75 74 114 113 113 108 117 137 126 122 132 127 121 111 88 77 80 71 69 70 68 58 55 48 62 57 51 74
94 91 89 88 92 93 94 95 97 102 109 104 96 95 82 90 97 99 112 112 123 125 113 110 109 113 110 110 104 96 92 85 73 69 67 68 49 51 53 43 59 62 53
93 90 87 86 86 86 87 95 100 103 102 105 104 94 96 102 112 121 111 123 127 121 121 114 124 130 123 98 91 96 93 89 72 76 71 60 48 48 47 57 40 59 65
104 93 88 88 88 90 85 86 96 102 99 97 101 98 100 106 116 117 114 108 111 115 108 115 119 120 104 100 85 74 70 74 75 65 67 61 48 48 54 58 55 34 44
96 100 92 86 91 94 94 90 89 95 101 97 92 98 104 104 104 109 107 122 126 121 110 116 120 120 100 85 83 85 82 84 83 73 65 61 57 54 46 53 47 44 45
92 84 96 90 99 102 100 96 92 90 95 98 103 99 98 94 97 104 103 104 107 110 116 112 108 109 109 105 87 83 85 65 71 66 62 56 47 43 41 40 36 28 33
97 85 77 87 106 109 99 104 92 94 90 94 102 108 110 105 97 95 91 93 109 112 118 117 109 97 92 100 101 47 71 85 48 31 14 15 29 22 5 357 14 360 349
115 108 96 81 80 105 124 110 109 100 107 105 108 110 109 112 107 98 97 90 100 102 113 114 118 121 96 66 313 347 315 309 321 339 335 344 335 335 340 331 343 333 334
131 146 137 132 111 88 91 88 130 74 132 111 123 121 122 128 125 132 137 140 115 92 35 192 241 234 265 272 259 313 288 296 304 313 325 323 319 333 327 330 315 315 315
132 162 173 168 151 132 101 103 115 137 160 166 160 144 128 124 153 175 167 155 162 110 255 212 227 236 244 268 327 334 334 340 314 313 286 296 316 343 346 345 339 301 287
116 132 169 194 191 167 184 162 137 134 158 142 171 208 219 224 229 264 240 195 289 280 244 236 255 238 312 309 326 331 344 330 298 285 283 288 305 315 329 334 322 328 286
94 94 95 171 201 193 187 177 166 143 168 242 197 205 212 210 201 234 245 248 260 248 235 237 278 254 284 308 316 313 311 345 278 277 280 302 305 309 321 325 330 318 308
86 92 90 108 186 188 191 188 170 172 184 178 225 256 240 226 250 210 242 250 255 259 249 249 242 252 249 271 280 282 297 306 300 289 284 285 288 301 319 322 332 338 338
68 95 104 110 167 183 182 195 191 192 212 181 165 183 229 217 238 264 234 227 224 246 245 253 251 252 265 273 284 288 293 296 305 304 298 293 288 283 298 305 325 358 19
62 55 79 89 148 177 202 192 185 192 191 196 183 186 216 238 235 226 242 236 226 242 265 270 264 258 274 278 270 277 288 299 303 319 316 316 295 280 275 298 339 18 52
25 23 54 61 47 198 218 218 198 206 211 213 216 208 207 234 229 241 246 250 257 255 254 261 266 272 276 277 272 269 275 279 292 350 3 357 327 270 271 277 348 173 55
37 21 10 2 321 263 239 234 223 220 208 222 227 226 235 256 256 252 253 254 254 251 252 258 257 280 315 296 270 253 242 247 281 338 4 19 9 28 19 72 277 318 44